When you browse on this site, cookies collect data to enhance your experience and personalize the content and advertising you see.
Visit our Privacy Policy to learn more. By continuing to use the site, you agree to this use of cookies and data.

Hourly Weather Nienowice

Today, 15 July, Wednesday

Time Temperature Precipitation Wind Pressure Humidity
00:00 +14°C° 0 mm 1 mps 745 mmHg 90%
01:00 +13°C° 0 mm 1 mps 745 mmHg 90%
02:00 +13°C° 0 mm 1 mps 745 mmHg 91%
03:00 +13°C° 0 mm 1 mps 745 mmHg 91%
04:00 +13°C° 0 mm 1 mps 745 mmHg 91%
05:00 +12°C° 0 mm 1 mps 745 mmHg 91%
06:00 +14°C° 0 mm 1 mps 745 mmHg 87%
07:00 +16°C° 0 mm 1 mps 745 mmHg 83%
08:00 +19°C° 0 mm 1 mps 745 mmHg 79%
09:00 +20°C° 0 mm 1 mps 745 mmHg 73%
10:00 +21°C° 0 mm 1 mps 745 mmHg 68%
11:00 +23°C° 0 mm 1 mps 745 mmHg 62%
12:00 +23°C° 0 mm 1 mps 744 mmHg 60%
13:00 +24°C° 0 mm 1 mps 744 mmHg 58%
14:00 +24°C° 0 mm 1 mps 744 mmHg 56%
15:00 +24°C° 0.1 mm 1 mps 744 mmHg 58%
16:00 +24°C° 0.1 mm 1 mps 744 mmHg 59%
17:00 +24°C° 0.1 mm 1 mps 743 mmHg 61%
18:00 +23°C° 0.1 mm 1 mps 743 mmHg 66%
19:00 +22°C° 0.1 mm 1 mps 743 mmHg 72%
20:00 +20°C° 0.1 mm 1 mps 743 mmHg 78%
21:00 +19°C° 0 mm 1 mps 743 mmHg 80%
22:00 +18°C° 0 mm 1 mps 743 mmHg 82%
23:00 +16°C° 0 mm 2 mps 743 mmHg 84%

Tomorrow, 16 July, Thursday

Time Temperature Precipitation Wind Pressure Humidity
00:00 +16°C° 0 mm 2 mps 743 mmHg 84%
01:00 +16°C° 0 mm 1 mps 743 mmHg 84%
02:00 +15°C° 0 mm 1 mps 743 mmHg 84%
03:00 +15°C° 0 mm 1 mps 743 mmHg 85%
04:00 +15°C° 0 mm 1 mps 743 mmHg 85%
05:00 +14°C° 0 mm 1 mps 742 mmHg 86%
06:00 +16°C° 0 mm 1 mps 743 mmHg 83%
07:00 +18°C° 0 mm 2 mps 743 mmHg 79%
08:00 +19°C° 0 mm 2 mps 743 mmHg 76%
09:00 +20°C° 0.1 mm 2 mps 743 mmHg 73%
10:00 +21°C° 0.1 mm 3 mps 743 mmHg 70%
11:00 +24°C° 0.1 mm 3 mps 743 mmHg 68%
12:00 +22°C° 0.8 mm 4 mps 743 mmHg 73%
13:00 +21°C° 0.8 mm 5 mps 743 mmHg 78%
14:00 +21°C° 0.8 mm 6 mps 743 mmHg 83%
15:00 +20°C° 0.2 mm 5 mps 743 mmHg 83%
16:00 +19°C° 0.2 mm 5 mps 743 mmHg 83%
17:00 +18°C° 0.2 mm 4 mps 743 mmHg 83%
18:00 +17°C° 0 mm 3 mps 743 mmHg 86%
19:00 +17°C° 0 mm 2 mps 743 mmHg 89%
20:00 +16°C° 0 mm 2 mps 743 mmHg 92%
21:00 +15°C° 0 mm 1 mps 743 mmHg 92%
22:00 +15°C° 0 mm 1 mps 743 mmHg 92%
23:00 +15°C° 0 mm 1 mps 743 mmHg 92%

Day after tomorrow, 17 July, Friday

Time Temperature Precipitation Wind Pressure Humidity
00:00 +15°C° 0 mm 1 mps 743 mmHg 92%
01:00 +15°C° 0 mm 1 mps 743 mmHg 91%
02:00 +15°C° 0 mm 1 mps 743 mmHg 91%
03:00 +15°C° 0 mm 1 mps 743 mmHg 91%
04:00 +14°C° 0 mm 1 mps 743 mmHg 91%
05:00 +13°C° 0 mm 0 mps 743 mmHg 92%
06:00 +15°C° 0 mm 1 mps 744 mmHg 87%
07:00 +18°C° 0 mm 1 mps 744 mmHg 83%
08:00 +19°C° 0 mm 1 mps 744 mmHg 79%
09:00 +20°C° 0 mm 1 mps 744 mmHg 75%
10:00 +21°C° 0 mm 1 mps 744 mmHg 70%
11:00 +22°C° 0 mm 1 mps 744 mmHg 66%
12:00 +22°C° 0.5 mm 1 mps 744 mmHg 67%
13:00 +22°C° 0.5 mm 1 mps 744 mmHg 69%
14:00 +22°C° 0.5 mm 1 mps 744 mmHg 71%
15:00 +21°C° 0.6 mm 1 mps 744 mmHg 77%
16:00 +20°C° 0.6 mm 1 mps 744 mmHg 83%
17:00 +19°C° 0.6 mm 1 mps 743 mmHg 89%
18:00 +19°C° 0.1 mm 1 mps 744 mmHg 90%
19:00 +18°C° 0.1 mm 1 mps 744 mmHg 91%
20:00 +18°C° 0.1 mm 1 mps 744 mmHg 92%
21:00 +16°C° 0.3 mm 1 mps 744 mmHg 93%
22:00 +16°C° 0.3 mm 1 mps 744 mmHg 94%
23:00 +16°C° 0.3 mm 1 mps 744 mmHg 95%

18 July, Saturday

Time Temperature Precipitation Wind Pressure Humidity
00:00 +15°C° 0.3 mm 0 mps 744 mmHg 96%
01:00 +14°C° 0.3 mm 0 mps 744 mmHg 96%
02:00 +14°C° 0.3 mm 0 mps 744 mmHg 97%
03:00 +14°C° 0.1 mm 0 mps 744 mmHg 97%
04:00 +14°C° 0.1 mm 0 mps 744 mmHg 97%
05:00 +14°C° 0.1 mm 0 mps 744 mmHg 97%
06:00 +15°C° 0.1 mm 0 mps 745 mmHg 94%
07:00 +16°C° 0.1 mm 0 mps 745 mmHg 92%
08:00 +17°C° 0.1 mm 0 mps 745 mmHg 89%
09:00 +18°C° 0.2 mm 0 mps 745 mmHg 86%
10:00 +19°C° 0.2 mm 0 mps 745 mmHg 82%
11:00 +20°C° 0.2 mm 0 mps 745 mmHg 78%
12:00 +22°C° 0.3 mm 1 mps 745 mmHg 76%
13:00 +23°C° 0.3 mm 1 mps 745 mmHg 74%
14:00 +23°C° 0.3 mm 2 mps 745 mmHg 72%
15:00 +21°C° 0.4 mm 2 mps 745 mmHg 77%
16:00 +20°C° 0.4 mm 2 mps 744 mmHg 83%
17:00 +19°C° 0.4 mm 3 mps 744 mmHg 88%
18:00 +19°C° 0.1 mm 2 mps 744 mmHg 89%
19:00 +18°C° 0.1 mm 2 mps 744 mmHg 91%
20:00 +18°C° 0.1 mm 2 mps 744 mmHg 92%
21:00 +17°C° 0 mm 2 mps 744 mmHg 93%
22:00 +18°C° 0 mm 1 mps 744 mmHg 94%
23:00 +16°C° 0 mm 1 mps 745 mmHg 95%

19 July, Sunday

Time Temperature Precipitation Wind Pressure Humidity
00:00 +16°C° 0 mm 1 mps 744 mmHg 95%
01:00 +15°C° 0 mm 1 mps 744 mmHg 95%
02:00 +15°C° 0 mm 1 mps 744 mmHg 95%
03:00 +15°C° 0 mm 1 mps 744 mmHg 95%
04:00 +15°C° 0 mm 1 mps 744 mmHg 95%
05:00 +15°C° 0 mm 1 mps 744 mmHg 95%
06:00 +16°C° 0 mm 1 mps 744 mmHg 93%
07:00 +18°C° 0 mm 1 mps 744 mmHg 90%
08:00 +19°C° 0 mm 1 mps 744 mmHg 88%
09:00 +19°C° 0.2 mm 1 mps 744 mmHg 88%
10:00 +18°C° 0.2 mm 0 mps 744 mmHg 88%
11:00 +18°C° 0.2 mm 0 mps 744 mmHg 88%
12:00 +20°C° 0.4 mm 1 mps 744 mmHg 89%
13:00 +19°C° 0.4 mm 2 mps 744 mmHg 89%
14:00 +19°C° 0.4 mm 2 mps 743 mmHg 90%
15:00 +19°C° 0.1 mm 2 mps 743 mmHg 89%
16:00 +19°C° 0.1 mm 2 mps 743 mmHg 87%
17:00 +21°C° 0.1 mm 1 mps 743 mmHg 86%
18:00 +20°C° 0 mm 1 mps 743 mmHg 88%
19:00 +19°C° 0 mm 1 mps 743 mmHg 90%
20:00 +19°C° 0 mm 1 mps 743 mmHg 93%
21:00 +18°C° 0 mm 1 mps 743 mmHg 93%
22:00 +18°C° 0 mm 1 mps 743 mmHg 93%
23:00 +16°C° 0 mm 1 mps 743 mmHg 93%

20 July, Monday

Time Temperature Precipitation Wind Pressure Humidity
00:00 +16°C° 0 mm 1 mps 743 mmHg 92%
01:00 +16°C° 0 mm 1 mps 743 mmHg 92%
02:00 +16°C° 0 mm 1 mps 743 mmHg 91%
03:00 +16°C° 0 mm 1 mps 743 mmHg 92%
04:00 +15°C° 0 mm 1 mps 743 mmHg 92%
05:00 +15°C° 0 mm 2 mps 743 mmHg 92%
06:00 +16°C° 0.2 mm 1 mps 743 mmHg 91%
07:00 +16°C° 0.2 mm 1 mps 743 mmHg 91%
08:00 +18°C° 0.2 mm 1 mps 743 mmHg 91%
09:00 +17°C° 0.3 mm 2 mps 743 mmHg 91%
10:00 +18°C° 0.3 mm 2 mps 743 mmHg 91%
11:00 +18°C° 0.3 mm 3 mps 742 mmHg 91%
12:00 +20°C° 0.2 mm 3 mps 742 mmHg 87%
13:00 +21°C° 0.2 mm 3 mps 742 mmHg 82%
14:00 +24°C° 0.2 mm 3 mps 742 mmHg 78%
15:00 +24°C° 0.8 mm 3 mps 742 mmHg 79%
16:00 +24°C° 0.8 mm 3 mps 742 mmHg 80%
17:00 +25°C° 0.8 mm 3 mps 741 mmHg 81%
18:00 +24°C° 0.6 mm 3 mps 741 mmHg 84%
19:00 +22°C° 0.6 mm 3 mps 741 mmHg 87%
20:00 +21°C° 0.6 mm 2 mps 741 mmHg 90%
21:00 +20°C° 0 mm 2 mps 742 mmHg 91%
22:00 +19°C° 0 mm 2 mps 742 mmHg 92%
23:00 +19°C° 0 mm 2 mps 742 mmHg 93%
Show more